Year,Month,Day,Hour,Minute,Value (Times are PST for temperature in C)
2014,08,08,00,00,14.90
2014,08,08,00,01,14.90
2014,08,08,00,02,14.90
2014,08,08,00,03,14.90
2014,08,08,00,04,14.90
2014,08,08,00,05,14.80
2014,08,08,00,06,14.80
2014,08,08,00,07,14.80
2014,08,08,00,08,14.80
2014,08,08,00,09,14.80
2014,08,08,00,10,14.80
2014,08,08,00,11,14.80
2014,08,08,00,12,14.80
2014,08,08,00,13,14.80
2014,08,08,00,14,14.80
2014,08,08,00,15,14.80
2014,08,08,00,16,14.80
2014,08,08,00,17,14.80
2014,08,08,00,18,14.80
2014,08,08,00,19,14.70
2014,08,08,00,20,14.80
2014,08,08,00,21,14.70
2014,08,08,00,22,14.80
2014,08,08,00,23,14.80
2014,08,08,00,24,14.80
2014,08,08,00,25,14.80
2014,08,08,00,26,14.80
2014,08,08,00,27,14.80
2014,08,08,00,28,14.80
2014,08,08,00,29,14.80
2014,08,08,00,30,14.80
2014,08,08,00,32,14.80
2014,08,08,00,33,14.80
2014,08,08,00,34,14.70
2014,08,08,00,35,14.70
2014,08,08,00,36,14.70
2014,08,08,00,37,14.70
2014,08,08,00,38,14.70
2014,08,08,00,39,14.70
2014,08,08,00,40,14.70
2014,08,08,00,41,14.70
2014,08,08,00,42,14.70
2014,08,08,00,43,14.70
2014,08,08,00,44,14.70
2014,08,08,00,45,14.70
2014,08,08,00,46,14.70
2014,08,08,00,47,14.70
2014,08,08,00,48,14.70
2014,08,08,00,49,14.70
2014,08,08,00,50,14.70
2014,08,08,00,51,14.60
2014,08,08,00,52,14.60
2014,08,08,00,53,14.60
2014,08,08,00,54,14.60
2014,08,08,00,55,14.60
2014,08,08,00,56,14.60
2014,08,08,00,57,14.60
2014,08,08,00,58,14.60
2014,08,08,00,59,14.60
2014,08,08,01,00,14.60
2014,08,08,01,01,14.60
2014,08,08,01,02,14.60
2014,08,08,01,03,14.60
2014,08,08,01,04,14.60
2014,08,08,01,05,14.60
2014,08,08,01,06,14.50
2014,08,08,01,07,14.50
2014,08,08,01,08,14.50
2014,08,08,01,09,14.50
2014,08,08,01,10,14.50
2014,08,08,01,11,14.50
2014,08,08,01,12,14.50
2014,08,08,01,13,14.50
2014,08,08,01,14,14.50
2014,08,08,01,15,14.50
2014,08,08,01,16,14.50
2014,08,08,01,17,14.40
2014,08,08,01,18,14.40
2014,08,08,01,19,14.40
2014,08,08,01,20,14.40
2014,08,08,01,21,14.40
2014,08,08,01,22,14.40
2014,08,08,01,23,14.40
2014,08,08,01,24,14.40
2014,08,08,01,25,14.40
2014,08,08,01,26,14.40
2014,08,08,01,27,14.40
2014,08,08,01,29,14.40
2014,08,08,01,30,14.40
2014,08,08,01,31,14.30
2014,08,08,01,32,14.30
2014,08,08,01,33,14.30
2014,08,08,01,34,14.30
2014,08,08,01,35,14.30
2014,08,08,01,36,14.30
2014,08,08,01,37,14.30
2014,08,08,01,38,14.30
2014,08,08,01,39,14.30
2014,08,08,01,40,14.30
2014,08,08,01,41,14.20
2014,08,08,01,42,14.20
2014,08,08,01,43,14.20
2014,08,08,01,44,14.20
2014,08,08,01,45,14.20
2014,08,08,01,46,14.20
2014,08,08,01,47,14.20
2014,08,08,01,48,14.20
2014,08,08,01,49,14.20
2014,08,08,01,50,14.20
2014,08,08,01,51,14.20
2014,08,08,01,52,14.20
2014,08,08,01,53,14.20
2014,08,08,01,54,14.20
2014,08,08,01,55,14.20
2014,08,08,01,56,14.20
2014,08,08,01,57,14.20
2014,08,08,01,58,14.20
2014,08,08,01,59,14.20
2014,08,08,02,00,14.20
2014,08,08,02,01,14.20
2014,08,08,02,02,14.20
2014,08,08,02,03,14.20
2014,08,08,02,04,14.20
2014,08,08,02,05,14.10
2014,08,08,02,07,14.10
2014,08,08,02,08,14.10
2014,08,08,02,09,14.10
2014,08,08,02,10,14.10
2014,08,08,02,11,14.10
2014,08,08,02,12,14.10
2014,08,08,02,13,14.10
2014,08,08,02,14,14.10
2014,08,08,02,15,14.10
2014,08,08,02,16,14.10
2014,08,08,02,17,14.10
2014,08,08,02,18,14.10
2014,08,08,02,19,14.10
2014,08,08,02,20,14.00
2014,08,08,02,21,14.00
2014,08,08,02,22,14.00
2014,08,08,02,23,14.00
2014,08,08,02,24,14.00
2014,08,08,02,25,13.90
2014,08,08,02,26,13.90
2014,08,08,02,27,13.90
2014,08,08,02,28,13.90
2014,08,08,02,29,13.90
2014,08,08,02,30,13.90
2014,08,08,02,31,13.90
2014,08,08,02,32,13.90
2014,08,08,02,33,13.90
2014,08,08,02,34,13.90
2014,08,08,02,35,13.90
2014,08,08,02,36,13.80
2014,08,08,02,37,13.80
2014,08,08,02,38,13.80
2014,08,08,02,39,13.80
2014,08,08,02,40,13.80
2014,08,08,02,41,13.80
2014,08,08,02,42,13.80
2014,08,08,02,43,13.80
2014,08,08,02,44,13.80
2014,08,08,02,45,13.80
2014,08,08,02,46,13.70
2014,08,08,02,47,13.70
2014,08,08,02,48,13.70
2014,08,08,02,49,13.70
2014,08,08,02,50,13.70
2014,08,08,02,51,13.70
2014,08,08,02,52,13.70
2014,08,08,02,53,13.60
2014,08,08,02,54,13.60
2014,08,08,02,55,13.60
2014,08,08,02,56,13.60
2014,08,08,02,57,13.60
2014,08,08,02,58,13.60
2014,08,08,02,59,13.60
2014,08,08,03,00,13.50
2014,08,08,03,01,13.50
2014,08,08,03,02,13.50
2014,08,08,03,03,13.50
2014,08,08,03,04,13.40
2014,08,08,03,05,13.40
2014,08,08,03,06,13.40
2014,08,08,03,07,13.40
2014,08,08,03,08,13.40
2014,08,08,03,09,13.40
2014,08,08,03,10,13.30
2014,08,08,03,11,13.30
2014,08,08,03,12,13.30
2014,08,08,03,13,13.30
2014,08,08,03,14,13.30
2014,08,08,03,15,13.30
2014,08,08,03,16,13.30
2014,08,08,03,17,13.30
2014,08,08,03,18,13.20
2014,08,08,03,19,13.20
2014,08,08,03,20,13.20
2014,08,08,03,21,13.20
2014,08,08,03,22,13.20
2014,08,08,03,23,13.20
2014,08,08,03,24,13.20
2014,08,08,03,25,13.20
2014,08,08,03,26,13.20
2014,08,08,03,27,13.20
2014,08,08,03,28,13.20
2014,08,08,03,29,13.20
2014,08,08,03,30,13.20
2014,08,08,03,31,13.20
2014,08,08,03,32,13.20
2014,08,08,03,33,13.20
2014,08,08,03,34,13.20
2014,08,08,03,35,13.20
2014,08,08,03,36,13.20
2014,08,08,03,37,13.20
2014,08,08,03,38,13.20
2014,08,08,03,39,13.20
2014,08,08,03,40,13.20
2014,08,08,03,41,13.20
2014,08,08,03,42,13.20
2014,08,08,03,43,13.20
2014,08,08,03,44,13.20
2014,08,08,03,45,13.20
2014,08,08,03,46,13.20
2014,08,08,03,47,13.20
2014,08,08,03,48,13.20
2014,08,08,03,49,13.20
2014,08,08,03,50,13.20
2014,08,08,03,51,13.20
2014,08,08,03,52,13.20
2014,08,08,03,53,13.20
2014,08,08,03,54,13.20
2014,08,08,03,55,13.20
2014,08,08,03,56,13.20
2014,08,08,03,57,13.20
2014,08,08,03,58,13.20
2014,08,08,03,59,13.20
2014,08,08,04,00,13.20
2014,08,08,04,01,13.20
2014,08,08,04,02,13.20
2014,08,08,04,03,13.20
2014,08,08,04,04,13.20
2014,08,08,04,05,13.20
2014,08,08,04,06,13.20
2014,08,08,04,07,13.10
2014,08,08,04,08,13.10
2014,08,08,04,09,13.10
2014,08,08,04,10,13.10
2014,08,08,04,11,13.10
2014,08,08,04,12,13.10
2014,08,08,04,13,13.10
2014,08,08,04,14,13.10
2014,08,08,04,15,13.10
2014,08,08,04,16,13.10
2014,08,08,04,17,13.00
2014,08,08,04,18,13.00
2014,08,08,04,19,13.00
2014,08,08,04,20,13.00
2014,08,08,04,21,13.00
2014,08,08,04,22,13.00
2014,08,08,04,23,13.00
2014,08,08,04,24,12.90
2014,08,08,04,25,12.90
2014,08,08,04,26,12.90
2014,08,08,04,28,12.90
2014,08,08,04,29,12.90
2014,08,08,04,30,12.90
2014,08,08,04,31,12.90
2014,08,08,04,32,12.90
2014,08,08,04,33,12.90
2014,08,08,04,34,12.90
2014,08,08,04,35,12.90
2014,08,08,04,36,12.90
2014,08,08,04,37,12.90
2014,08,08,04,38,12.90
2014,08,08,04,39,12.90
2014,08,08,04,40,12.90
2014,08,08,04,41,12.90
2014,08,08,04,42,12.90
2014,08,08,04,43,12.90
2014,08,08,04,44,12.90
2014,08,08,04,45,12.90
2014,08,08,04,46,12.90
2014,08,08,04,47,12.90
2014,08,08,04,48,12.90
2014,08,08,04,49,12.90
2014,08,08,04,50,12.90
2014,08,08,04,51,12.90
2014,08,08,04,52,12.90
2014,08,08,04,53,12.90
2014,08,08,04,54,12.90
2014,08,08,04,55,13.00
2014,08,08,04,56,13.00
2014,08,08,04,57,13.00
2014,08,08,04,58,13.00
2014,08,08,04,59,13.00
2014,08,08,05,00,13.00
2014,08,08,05,01,13.00
2014,08,08,05,02,13.00
2014,08,08,05,03,13.00
2014,08,08,05,04,13.00
2014,08,08,05,05,13.00
2014,08,08,05,06,13.00
2014,08,08,05,07,13.00
2014,08,08,05,08,13.00
2014,08,08,05,09,13.00
2014,08,08,05,10,13.00
2014,08,08,05,11,13.10
2014,08,08,05,12,13.10
2014,08,08,05,13,13.10
2014,08,08,05,14,13.10
2014,08,08,05,15,13.10
2014,08,08,05,16,13.10
2014,08,08,05,17,13.10
2014,08,08,05,18,13.10
2014,08,08,05,19,13.10
2014,08,08,05,20,13.20
2014,08,08,05,21,13.10
2014,08,08,05,22,13.10
2014,08,08,05,23,13.20
2014,08,08,05,24,13.20
2014,08,08,05,25,13.20
2014,08,08,05,26,13.20
2014,08,08,05,27,13.20
2014,08,08,05,28,13.20
2014,08,08,05,29,13.20
2014,08,08,05,30,13.20
2014,08,08,05,31,13.20
2014,08,08,05,32,13.20
2014,08,08,05,33,13.20
2014,08,08,05,34,13.20
2014,08,08,05,35,13.20
2014,08,08,05,36,13.20
2014,08,08,05,37,13.20
2014,08,08,05,38,13.20
2014,08,08,05,39,13.20
2014,08,08,05,40,13.20
2014,08,08,05,41,13.20
2014,08,08,05,42,13.20
2014,08,08,05,43,13.10
2014,08,08,05,44,13.10
2014,08,08,05,45,13.10
2014,08,08,05,46,13.10
2014,08,08,05,47,13.10
2014,08,08,05,48,13.10
2014,08,08,05,49,13.10
2014,08,08,05,50,13.10
2014,08,08,05,51,13.10
2014,08,08,05,52,13.10
2014,08,08,05,53,13.10
2014,08,08,05,54,13.10
2014,08,08,05,55,13.00
2014,08,08,05,56,13.00
2014,08,08,05,57,13.00
2014,08,08,05,58,13.00
2014,08,08,05,59,13.00
2014,08,08,06,00,12.90
2014,08,08,06,01,12.90
2014,08,08,06,02,12.90
2014,08,08,06,03,12.90
2014,08,08,06,04,12.90
2014,08,08,06,05,12.90
2014,08,08,06,06,12.90
2014,08,08,06,07,12.90
2014,08,08,06,08,12.90
2014,08,08,06,09,12.90
2014,08,08,06,10,12.90
2014,08,08,06,11,13.00
2014,08,08,06,12,13.00
2014,08,08,06,13,13.00
2014,08,08,06,15,13.00
2014,08,08,06,16,13.00
2014,08,08,06,17,13.00
2014,08,08,06,18,13.10
2014,08,08,06,19,13.10
2014,08,08,06,20,13.10
2014,08,08,06,21,13.10
2014,08,08,06,23,13.10
2014,08,08,06,24,13.10
2014,08,08,06,25,13.20
2014,08,08,06,26,13.20
2014,08,08,06,27,13.20
2014,08,08,06,28,13.20
2014,08,08,06,29,13.20
2014,08,08,06,30,13.20
2014,08,08,06,31,13.20
2014,08,08,06,32,13.20
2014,08,08,06,33,13.20
2014,08,08,06,34,13.20
2014,08,08,06,35,13.20
2014,08,08,06,36,13.20
2014,08,08,06,37,13.30
2014,08,08,06,38,13.30
2014,08,08,06,39,13.30
2014,08,08,06,40,13.30
2014,08,08,06,41,13.30
2014,08,08,06,42,13.30
2014,08,08,06,43,13.30
2014,08,08,06,44,13.30
2014,08,08,06,45,13.30
2014,08,08,06,46,13.30
2014,08,08,06,47,13.30
2014,08,08,06,48,13.30
2014,08,08,06,49,13.30
2014,08,08,06,50,13.30
2014,08,08,06,51,13.30
2014,08,08,06,52,13.30
2014,08,08,06,53,13.30
2014,08,08,06,54,13.30
2014,08,08,06,55,13.30
2014,08,08,06,56,13.30
2014,08,08,06,57,13.30
2014,08,08,06,58,13.30
2014,08,08,06,59,13.30
2014,08,08,07,00,13.30
2014,08,08,07,01,13.30
2014,08,08,07,02,13.30
2014,08,08,07,03,13.30
2014,08,08,07,04,13.30
2014,08,08,07,05,13.30
2014,08,08,07,06,13.40
2014,08,08,07,07,13.30
2014,08,08,07,08,13.30
2014,08,08,07,09,13.30
2014,08,08,07,10,13.40
2014,08,08,07,11,13.40
2014,08,08,07,12,13.40
2014,08,08,07,13,13.40
2014,08,08,07,14,13.40
2014,08,08,07,15,13.40
2014,08,08,07,16,13.50
2014,08,08,07,17,13.50
2014,08,08,07,18,13.50
2014,08,08,07,19,13.50
2014,08,08,07,20,13.60
2014,08,08,07,21,13.60
2014,08,08,07,22,13.60
2014,08,08,07,24,13.60
2014,08,08,07,25,13.60
2014,08,08,07,26,13.60
2014,08,08,07,27,13.60
2014,08,08,07,28,13.60
2014,08,08,07,29,13.70
2014,08,08,07,30,13.70
2014,08,08,07,31,13.70
2014,08,08,07,32,13.70
2014,08,08,07,33,13.70
2014,08,08,07,34,13.70
2014,08,08,07,35,13.70
2014,08,08,07,36,13.70
2014,08,08,07,37,13.70
2014,08,08,07,38,13.80
2014,08,08,07,39,13.80
2014,08,08,07,40,13.80
2014,08,08,07,41,13.80
2014,08,08,07,42,13.80
2014,08,08,07,43,13.80
2014,08,08,07,44,13.80
2014,08,08,07,45,13.80
2014,08,08,07,46,13.90
2014,08,08,07,47,13.90
2014,08,08,07,48,13.90
2014,08,08,07,49,13.90
2014,08,08,07,50,13.90
2014,08,08,07,51,13.90
2014,08,08,07,52,13.90
2014,08,08,07,53,14.00
2014,08,08,07,54,14.00
2014,08,08,07,55,14.10
2014,08,08,07,56,14.10
2014,08,08,07,57,14.10
2014,08,08,07,58,14.10
2014,08,08,07,59,14.10
2014,08,08,08,00,14.10
2014,08,08,08,01,14.20
2014,08,08,08,02,14.20
2014,08,08,08,03,14.20
2014,08,08,08,04,14.20
2014,08,08,08,05,14.20
2014,08,08,08,06,14.20
2014,08,08,08,07,14.30
2014,08,08,08,08,14.30
2014,08,08,08,09,14.30
2014,08,08,08,10,14.30
2014,08,08,08,11,14.30
2014,08,08,08,12,14.30
2014,08,08,08,13,14.40
2014,08,08,08,14,14.40
2014,08,08,08,15,14.40
2014,08,08,08,16,14.40
2014,08,08,08,17,14.50
2014,08,08,08,18,14.50
2014,08,08,08,19,14.60
2014,08,08,08,20,14.60
2014,08,08,08,21,14.60
2014,08,08,08,22,14.60
2014,08,08,08,23,14.70
2014,08,08,08,24,14.70
2014,08,08,08,25,14.70
2014,08,08,08,26,14.70
2014,08,08,08,27,14.70
2014,08,08,08,28,14.80
2014,08,08,08,29,14.80
2014,08,08,08,30,14.80
2014,08,08,08,31,14.80
2014,08,08,08,32,14.80
2014,08,08,08,33,14.80
2014,08,08,08,34,14.80
2014,08,08,08,35,14.80
2014,08,08,08,36,14.80
2014,08,08,08,37,14.80
2014,08,08,08,38,14.80
2014,08,08,08,39,14.80
2014,08,08,08,40,14.80
2014,08,08,08,41,14.80
2014,08,08,08,42,14.80
2014,08,08,08,43,14.80
2014,08,08,08,44,14.80
2014,08,08,08,45,14.80
2014,08,08,08,46,14.80
2014,08,08,08,47,14.80
2014,08,08,08,48,14.90
2014,08,08,08,49,14.90
2014,08,08,08,50,14.90
2014,08,08,08,51,14.90
2014,08,08,08,52,14.90
2014,08,08,08,54,15.00
2014,08,08,08,55,15.00
2014,08,08,08,56,15.10
2014,08,08,08,57,15.10
2014,08,08,08,58,15.10
2014,08,08,08,59,15.10
2014,08,08,09,00,15.10
2014,08,08,09,01,15.10
2014,08,08,09,02,15.10
2014,08,08,09,03,15.10
2014,08,08,09,04,15.10
2014,08,08,09,05,15.20
2014,08,08,09,06,15.20
2014,08,08,09,07,15.20
2014,08,08,09,08,15.20
2014,08,08,09,10,15.20
2014,08,08,09,11,15.20
2014,08,08,09,12,15.20
2014,08,08,09,13,15.20
2014,08,08,09,14,15.30
2014,08,08,09,15,15.30
2014,08,08,09,16,15.30
2014,08,08,09,17,15.30
2014,08,08,09,18,15.30
2014,08,08,09,19,15.30
2014,08,08,09,20,15.30
2014,08,08,09,21,15.40
2014,08,08,09,22,15.40
2014,08,08,09,23,15.40
2014,08,08,09,24,15.40
2014,08,08,09,25,15.40
2014,08,08,09,26,15.40
2014,08,08,09,27,15.50
2014,08,08,09,29,15.60
2014,08,08,09,30,15.60
2014,08,08,09,31,15.60
2014,08,08,09,32,15.60
2014,08,08,09,33,15.60
2014,08,08,09,34,15.60
2014,08,08,09,35,15.70
2014,08,08,09,36,15.70
2014,08,08,09,37,15.70
2014,08,08,09,38,15.70
2014,08,08,09,39,15.70
2014,08,08,09,40,15.80
2014,08,08,09,41,15.80
2014,08,08,09,42,15.80
2014,08,08,09,43,15.80
2014,08,08,09,44,15.70
2014,08,08,09,45,15.70
2014,08,08,09,46,15.70
2014,08,08,09,47,15.70
2014,08,08,09,48,15.70
2014,08,08,09,49,15.70
2014,08,08,09,50,15.70
2014,08,08,09,51,15.70
2014,08,08,09,52,15.70
2014,08,08,09,53,15.70
2014,08,08,09,54,15.70
2014,08,08,09,55,15.80
2014,08,08,09,56,15.80
2014,08,08,09,57,15.80
2014,08,08,09,58,15.90
2014,08,08,09,59,15.90
2014,08,08,10,00,16.10
2014,08,08,10,01,16.20
2014,08,08,10,02,16.20
2014,08,08,10,03,16.30
2014,08,08,10,04,16.40
2014,08,08,10,05,16.50
2014,08,08,10,06,16.60
2014,08,08,10,07,16.70
2014,08,08,10,08,16.80
2014,08,08,10,09,16.90
2014,08,08,10,10,17.10
2014,08,08,10,11,17.20
2014,08,08,10,12,17.30
2014,08,08,10,13,17.40
2014,08,08,10,14,17.40
2014,08,08,10,15,17.60
2014,08,08,10,16,17.70
2014,08,08,10,17,17.70
2014,08,08,10,18,17.80
2014,08,08,10,19,17.80
2014,08,08,10,20,17.80
2014,08,08,10,21,17.90
2014,08,08,10,22,17.90
2014,08,08,10,23,18.00
2014,08,08,10,24,18.00
2014,08,08,10,25,18.00
2014,08,08,10,26,18.10
2014,08,08,10,27,18.10
2014,08,08,10,28,18.20
2014,08,08,10,29,18.20
2014,08,08,10,30,18.20
2014,08,08,10,31,18.30
2014,08,08,10,32,18.30
2014,08,08,10,33,18.30
2014,08,08,10,34,18.30
2014,08,08,10,35,18.30
2014,08,08,10,36,18.40
2014,08,08,10,37,18.40
2014,08,08,10,38,18.50
2014,08,08,10,39,18.60
2014,08,08,10,40,18.70
2014,08,08,10,41,18.70
2014,08,08,10,42,18.80
2014,08,08,10,43,18.80
2014,08,08,10,44,18.90
2014,08,08,10,45,18.80
2014,08,08,10,46,18.80
2014,08,08,10,47,18.80
2014,08,08,10,48,18.80
2014,08,08,10,49,18.70
2014,08,08,10,50,18.70
2014,08,08,10,51,18.70
2014,08,08,10,52,18.80
2014,08,08,10,53,18.90
2014,08,08,10,54,18.90
2014,08,08,10,55,19.00
2014,08,08,10,56,19.10
2014,08,08,10,57,19.20
2014,08,08,10,58,19.30
2014,08,08,10,59,19.30
2014,08,08,11,00,19.30
2014,08,08,11,01,19.20
2014,08,08,11,02,19.20
2014,08,08,11,03,19.20
2014,08,08,11,04,19.20
2014,08,08,11,05,19.20
2014,08,08,11,06,19.20
2014,08,08,11,08,19.20
2014,08,08,11,09,19.20
2014,08,08,11,10,19.30
2014,08,08,11,11,19.30
2014,08,08,11,12,19.30
2014,08,08,11,13,19.30
2014,08,08,11,14,19.30
2014,08,08,11,15,19.20
2014,08,08,11,16,19.20
2014,08,08,11,17,19.20
2014,08,08,11,18,19.20
2014,08,08,11,19,19.20
2014,08,08,11,20,19.20
2014,08,08,11,21,19.30
2014,08,08,11,22,19.30
2014,08,08,11,23,19.30
2014,08,08,11,24,19.30
2014,08,08,11,25,19.30
2014,08,08,11,26,19.30
2014,08,08,11,27,19.40
2014,08,08,11,28,19.40
2014,08,08,11,29,19.50
2014,08,08,11,30,19.60
2014,08,08,11,31,19.70
2014,08,08,11,32,19.80
2014,08,08,11,33,19.90
2014,08,08,11,34,20.00
2014,08,08,11,35,20.10
2014,08,08,11,36,20.20
2014,08,08,11,37,20.30
2014,08,08,11,38,20.30
2014,08,08,11,39,20.40
2014,08,08,11,40,20.40
2014,08,08,11,41,20.40
2014,08,08,11,42,20.50
2014,08,08,11,43,20.60
2014,08,08,11,45,20.80
2014,08,08,11,46,20.80
2014,08,08,11,47,20.90
2014,08,08,11,48,20.90
2014,08,08,11,49,21.10
2014,08,08,11,50,21.10
2014,08,08,11,51,21.10
2014,08,08,11,52,21.10
2014,08,08,11,53,21.00
2014,08,08,11,54,20.90
2014,08,08,11,55,20.90
2014,08,08,11,56,20.90
2014,08,08,11,57,20.90
2014,08,08,11,58,20.90
2014,08,08,11,59,20.90
2014,08,08,12,00,20.90
2014,08,08,12,01,20.90
2014,08,08,12,02,20.90
2014,08,08,12,03,20.90
2014,08,08,12,04,21.00
2014,08,08,12,05,21.00
2014,08,08,12,06,20.90
2014,08,08,12,07,20.90
2014,08,08,12,08,20.90
2014,08,08,12,09,20.80
2014,08,08,12,10,20.80
2014,08,08,12,11,20.90
2014,08,08,12,12,20.90
2014,08,08,12,13,20.90
2014,08,08,12,14,20.90
2014,08,08,12,15,21.00
2014,08,08,12,16,21.10
2014,08,08,12,17,21.10
2014,08,08,12,18,21.10
2014,08,08,12,19,21.10
2014,08,08,12,20,21.10
2014,08,08,12,21,21.10
2014,08,08,12,22,21.10
2014,08,08,12,23,21.10
2014,08,08,12,24,21.10
2014,08,08,12,25,21.20
2014,08,08,12,26,21.20
2014,08,08,12,27,21.30
2014,08,08,12,28,21.40
2014,08,08,12,29,21.50
2014,08,08,12,30,21.60
2014,08,08,12,31,21.70
2014,08,08,12,32,21.70
2014,08,08,12,33,21.70
2014,08,08,12,34,21.80
2014,08,08,12,35,21.80
2014,08,08,12,36,21.80
2014,08,08,12,37,21.90
2014,08,08,12,38,21.90
2014,08,08,12,39,22.00
2014,08,08,12,40,22.10
2014,08,08,12,41,22.10
2014,08,08,12,42,22.20
2014,08,08,12,43,22.20
2014,08,08,12,44,22.30
2014,08,08,12,45,22.40
2014,08,08,12,46,22.60
2014,08,08,12,47,22.60
2014,08,08,12,48,22.60
2014,08,08,12,49,22.60
2014,08,08,12,50,22.60
2014,08,08,12,51,22.60
2014,08,08,12,52,22.70
2014,08,08,12,53,22.80
2014,08,08,12,54,23.00
2014,08,08,12,55,23.20
2014,08,08,12,56,23.30
2014,08,08,12,57,23.40
2014,08,08,12,58,23.60
2014,08,08,12,59,23.70
2014,08,08,13,00,23.70
2014,08,08,13,01,23.70
2014,08,08,13,02,23.70
2014,08,08,13,03,23.80
2014,08,08,13,04,23.80
2014,08,08,13,05,23.80
2014,08,08,13,06,23.90
2014,08,08,13,07,23.90
2014,08,08,13,08,23.80
2014,08,08,13,09,23.80
2014,08,08,13,10,23.80
2014,08,08,13,11,23.80
2014,08,08,13,12,23.70
2014,08,08,13,13,23.70
2014,08,08,13,14,23.70
2014,08,08,13,15,23.70
2014,08,08,13,16,23.70
2014,08,08,13,17,23.70
2014,08,08,13,18,23.70
2014,08,08,13,19,23.70
2014,08,08,13,20,23.70
2014,08,08,13,21,23.80
2014,08,08,13,22,23.80
2014,08,08,13,23,23.90
2014,08,08,13,24,24.00
2014,08,08,13,25,24.10
2014,08,08,13,26,24.10
2014,08,08,13,27,24.20
2014,08,08,13,28,24.20
2014,08,08,13,29,24.30
2014,08,08,13,30,24.30
2014,08,08,13,31,24.40
2014,08,08,13,32,24.30
2014,08,08,13,33,24.30
2014,08,08,13,34,24.40
2014,08,08,13,35,24.30
2014,08,08,13,36,24.30
2014,08,08,13,37,24.30
2014,08,08,13,38,24.40
2014,08,08,13,39,24.40
2014,08,08,13,40,24.40
2014,08,08,13,41,24.50
2014,08,08,13,42,24.50
2014,08,08,13,43,24.50
2014,08,08,13,44,24.50
2014,08,08,13,45,24.50
2014,08,08,13,46,24.50
2014,08,08,13,47,24.40
2014,08,08,13,48,24.40
2014,08,08,13,49,24.30
2014,08,08,13,50,24.40
2014,08,08,13,51,24.40
2014,08,08,13,52,24.40
2014,08,08,13,53,24.40
2014,08,08,13,54,24.40
2014,08,08,13,55,24.50
2014,08,08,13,56,24.60
2014,08,08,13,57,24.70
2014,08,08,13,58,24.80
2014,08,08,13,59,24.80
2014,08,08,14,00,24.90
2014,08,08,14,01,25.00
2014,08,08,14,02,25.10
2014,08,08,14,03,25.10
2014,08,08,14,04,25.10
2014,08,08,14,05,25.10
2014,08,08,14,06,25.10
2014,08,08,14,07,25.10
2014,08,08,14,08,25.10
2014,08,08,14,09,25.00
2014,08,08,14,10,25.00
2014,08,08,14,11,25.00
2014,08,08,14,12,25.10
2014,08,08,14,13,25.20
2014,08,08,14,14,25.20
2014,08,08,14,15,25.20
2014,08,08,14,16,25.20
2014,08,08,14,17,25.20
2014,08,08,14,18,25.10
2014,08,08,14,19,25.10
2014,08,08,14,20,25.00
2014,08,08,14,21,25.00
2014,08,08,14,22,24.90
2014,08,08,14,23,24.80
2014,08,08,14,24,24.80
2014,08,08,14,25,24.70
2014,08,08,14,26,24.60
2014,08,08,14,27,24.50
2014,08,08,14,28,24.30
2014,08,08,14,29,24.20
2014,08,08,14,30,24.20
2014,08,08,14,31,24.10
2014,08,08,14,32,24.20
2014,08,08,14,33,24.20
2014,08,08,14,34,24.30
2014,08,08,14,35,24.30
2014,08,08,14,36,24.30
2014,08,08,14,37,24.30
2014,08,08,14,38,24.20
2014,08,08,14,39,24.10
2014,08,08,14,40,24.00
2014,08,08,14,41,23.90
2014,08,08,14,42,23.80
2014,08,08,14,43,23.80
2014,08,08,14,44,23.90
2014,08,08,14,45,23.90
2014,08,08,14,46,23.90
2014,08,08,14,47,24.00
2014,08,08,14,48,24.10
2014,08,08,14,49,24.20
2014,08,08,14,50,24.40
2014,08,08,14,51,24.50
2014,08,08,14,52,24.50
2014,08,08,14,53,24.60
2014,08,08,14,54,24.60
2014,08,08,14,55,24.70
2014,08,08,14,56,24.70
2014,08,08,14,57,24.70
2014,08,08,14,58,24.80
2014,08,08,14,59,24.80
2014,08,08,15,00,24.80
2014,08,08,15,01,24.70
2014,08,08,15,02,24.60
2014,08,08,15,03,24.60
2014,08,08,15,04,24.60
2014,08,08,15,05,24.50
2014,08,08,15,06,24.50
2014,08,08,15,08,24.50
2014,08,08,15,09,24.60
2014,08,08,15,10,24.60
2014,08,08,15,11,24.60
2014,08,08,15,12,24.70
2014,08,08,15,13,24.70
2014,08,08,15,14,24.80
2014,08,08,15,15,24.80
2014,08,08,15,16,24.80
2014,08,08,15,17,24.70
2014,08,08,15,18,24.70
2014,08,08,15,19,24.70
2014,08,08,15,20,24.70
2014,08,08,15,21,24.70
2014,08,08,15,22,24.70
2014,08,08,15,23,24.80
2014,08,08,15,24,24.90
2014,08,08,15,25,24.90
2014,08,08,15,26,24.90
2014,08,08,15,27,24.90
2014,08,08,15,28,24.90
2014,08,08,15,29,24.90
2014,08,08,15,30,24.90
2014,08,08,15,31,25.00
2014,08,08,15,32,24.90
2014,08,08,15,34,25.00
2014,08,08,15,35,25.00
2014,08,08,15,36,25.00
2014,08,08,15,37,25.00
2014,08,08,15,38,25.00
2014,08,08,15,39,25.00
2014,08,08,15,40,24.90
2014,08,08,15,41,24.80
2014,08,08,15,42,24.80
2014,08,08,15,43,24.70
2014,08,08,15,44,24.70
2014,08,08,15,45,24.70
2014,08,08,15,46,24.80
2014,08,08,15,47,24.80
2014,08,08,15,48,24.80
2014,08,08,15,49,24.90
2014,08,08,15,50,24.90
2014,08,08,15,51,24.90
2014,08,08,15,52,24.90
2014,08,08,15,53,24.90
2014,08,08,15,54,24.90
2014,08,08,15,55,24.90
2014,08,08,15,56,24.90
2014,08,08,15,57,25.00
2014,08,08,15,58,25.00
2014,08,08,15,59,25.10
2014,08,08,16,00,25.10
2014,08,08,16,01,25.10
2014,08,08,16,02,25.10
2014,08,08,16,03,25.00
2014,08,08,16,04,25.00
2014,08,08,16,05,25.00
2014,08,08,16,06,24.90
2014,08,08,16,07,24.90
2014,08,08,16,08,24.80
2014,08,08,16,09,24.80
2014,08,08,16,10,24.80
2014,08,08,16,11,24.80
2014,08,08,16,12,24.90
2014,08,08,16,13,24.90
2014,08,08,16,14,24.90
2014,08,08,16,15,25.00
2014,08,08,16,16,25.00
2014,08,08,16,17,25.00
2014,08,08,16,18,25.00
2014,08,08,16,19,25.00
2014,08,08,16,20,24.90
2014,08,08,16,21,24.90
2014,08,08,16,22,24.90
2014,08,08,16,23,24.80
2014,08,08,16,24,24.70
2014,08,08,16,25,24.70
2014,08,08,16,26,24.70
2014,08,08,16,27,24.70
2014,08,08,16,28,24.80
2014,08,08,16,29,24.80
2014,08,08,16,30,24.80
2014,08,08,16,31,24.80
2014,08,08,16,32,24.90
2014,08,08,16,33,24.90
2014,08,08,16,34,24.80
2014,08,08,16,35,24.80
2014,08,08,16,36,24.80
2014,08,08,16,37,24.70
2014,08,08,16,38,24.70
2014,08,08,16,39,24.70
2014,08,08,16,40,24.70
2014,08,08,16,41,24.60
2014,08,08,16,42,24.60
2014,08,08,16,43,24.70
2014,08,08,16,44,24.70
2014,08,08,16,45,24.70
2014,08,08,16,46,24.70
2014,08,08,16,47,24.70
2014,08,08,16,48,24.70
2014,08,08,16,49,24.70
2014,08,08,16,50,24.70
2014,08,08,16,51,24.70
2014,08,08,16,52,24.70
2014,08,08,16,53,24.70
2014,08,08,16,54,24.70
2014,08,08,16,55,24.80
2014,08,08,16,56,24.80
2014,08,08,16,57,24.80
2014,08,08,16,58,24.80
2014,08,08,16,59,24.80
2014,08,08,17,00,24.80
2014,08,08,17,01,24.80
2014,08,08,17,02,24.80
2014,08,08,17,03,24.70
2014,08,08,17,04,24.70
2014,08,08,17,05,24.70
2014,08,08,17,07,24.60
2014,08,08,17,08,24.60
2014,08,08,17,09,24.60
2014,08,08,17,10,24.60
2014,08,08,17,11,24.70
2014,08,08,17,12,24.70
2014,08,08,17,13,24.70
2014,08,08,17,14,24.80
2014,08,08,17,15,24.80
2014,08,08,17,16,24.80
2014,08,08,17,18,24.70
2014,08,08,17,19,24.80
2014,08,08,17,20,24.80
2014,08,08,17,21,24.80
2014,08,08,17,22,24.80
2014,08,08,17,23,24.80
2014,08,08,17,24,24.70
2014,08,08,17,25,24.70
2014,08,08,17,26,24.60
2014,08,08,17,27,24.60
2014,08,08,17,28,24.60
2014,08,08,17,29,24.50
2014,08,08,17,30,24.40
2014,08,08,17,31,24.40
2014,08,08,17,32,24.30
2014,08,08,17,33,24.30
2014,08,08,17,34,24.20
2014,08,08,17,35,24.20